カタログに戻る

STARLINK-34597

運用中通信VLEO
NORAD 64738·PAYLOAD·🇺🇸 United States

打ち上げ Jul 2, 2025 から Cape Canaveral Space Force Station

Loading…

次のパス (今後24時間)

TLE

最新Source: CelesTrak SupGP

元期: Sep 15, 2026, 02:41 UTC

1 64738C 25144Q   26258.11229167  .00035155  00000+0  10384-2 0  2580
2 64738  53.1604  18.6585 0001103  79.1311 115.0254 15.34380255    14

AllMySatでSTARLINK-34597をリアルタイム追跡

Download on the App Store